Time,TemperatureF,DewpointF,PressureIn,WindDirection,WindDirectionDegrees,WindSpeedMPH,WindSpeedGustMPH,Humidity,HourlyPrecipIn,Conditions,Clouds,dailyrainin,SolarRadiationWatts/m^2,SoftwareType,DateUTC
2013-05-14 00:01:00,47.0,46.0,-100.00,SSW,201,1.0,3.0,98,0.05,,,1.00,0.000000,,2013-05-14 07:01:00,
2013-05-14 00:11:00,47.0,46.0,-100.00,SSW,201,1.0,3.0,98,0.05,,,1.00,0.000000,,2013-05-14 07:11:00,
2013-05-14 00:21:00,47.0,46.0,-100.00,SSW,201,1.0,3.0,98,0.05,,,1.00,0.000000,,2013-05-14 07:21:00,
2013-05-14 00:31:00,47.0,46.0,-100.00,SSW,201,1.0,3.0,98,0.05,,,1.00,0.000000,,2013-05-14 07:31:00,
2013-05-14 00:52:00,45.0,44.0,-100.00,SSW,203,0.0,4.0,96,0.00,,,1.00,0.000000,,2013-05-14 07:52:00,
2013-05-14 01:02:00,45.0,44.0,-100.00,SSW,203,0.0,4.0,96,0.00,,,1.00,0.000000,,2013-05-14 08:02:00,
2013-05-14 01:11:00,45.0,44.0,-100.00,SSW,203,0.0,4.0,96,0.00,,,1.00,0.000000,,2013-05-14 08:11:00,
2013-05-14 01:21:00,45.0,44.0,-100.00,SSW,203,0.0,4.0,96,0.00,,,1.00,0.000000,,2013-05-14 08:21:00,
2013-05-14 01:31:00,45.0,44.0,-100.00,SSW,203,0.0,4.0,96,0.00,,,1.00,0.000000,,2013-05-14 08:31:00,
2013-05-14 01:52:00,45.0,45.0,-100.00,ENE,68,0.0,3.0,99,0.00,,,0.98,0.000000,,2013-05-14 08:52:00,
2013-05-14 02:01:00,45.0,45.0,-100.00,ENE,68,0.0,3.0,99,0.00,,,0.98,0.000000,,2013-05-14 09:01:00,
2013-05-14 02:11:00,45.0,45.0,-100.00,ENE,68,0.0,3.0,99,0.00,,,0.98,0.000000,,2013-05-14 09:11:00,
2013-05-14 02:21:00,45.0,45.0,-100.00,ENE,68,0.0,3.0,99,0.00,,,0.98,0.000000,,2013-05-14 09:21:00,
2013-05-14 02:32:00,45.0,45.0,-100.00,ENE,68,0.0,3.0,99,0.00,,,0.98,0.000000,,2013-05-14 09:32:00,
2013-05-14 02:54:00,46.0,45.0,-100.00,SE,141,2.0,5.0,97,0.00,,,0.94,0.000000,,2013-05-14 09:54:00,
2013-05-14 03:04:00,46.0,45.0,-100.00,SE,141,2.0,5.0,97,0.00,,,0.94,0.000000,,2013-05-14 10:04:00,
2013-05-14 03:14:00,46.0,45.0,-100.00,SE,141,2.0,5.0,97,0.00,,,0.94,0.000000,,2013-05-14 10:14:00,
2013-05-14 03:25:00,46.0,45.0,-100.00,SE,141,2.0,5.0,97,0.00,,,0.94,0.000000,,2013-05-14 10:25:00,
2013-05-14 03:32:00,46.0,45.0,-100.00,SE,141,2.0,5.0,97,0.00,,,0.94,0.000000,,2013-05-14 10:32:00,
2013-05-14 03:52:00,46.0,46.0,-100.00,SW,225,0.0,2.0,99,0.00,,,0.94,0.000000,,2013-05-14 10:52:00,
2013-05-14 04:02:00,46.0,46.0,-100.00,SW,225,0.0,2.0,99,0.00,,,0.94,0.000000,,2013-05-14 11:02:00,
2013-05-14 04:11:00,46.0,46.0,-100.00,SW,225,0.0,2.0,99,0.00,,,0.94,0.000000,,2013-05-14 11:11:00,
2013-05-14 04:21:00,46.0,46.0,-100.00,SW,225,0.0,2.0,99,0.00,,,0.94,0.000000,,2013-05-14 11:21:00,
2013-05-14 04:32:00,46.0,46.0,-100.00,SW,225,0.0,2.0,99,0.00,,,0.94,0.000000,,2013-05-14 11:32:00,
2013-05-14 04:53:00,46.0,46.0,-100.00,East,81,1.0,3.0,99,0.00,,,0.93,0.000000,,2013-05-14 11:53:00,
2013-05-14 05:02:00,46.0,46.0,-100.00,East,81,1.0,3.0,99,0.00,,,0.93,0.000000,,2013-05-14 12:02:00,
2013-05-14 05:12:00,46.0,46.0,-100.00,East,81,1.0,3.0,99,0.00,,,0.93,0.000000,,2013-05-14 12:12:00,
2013-05-14 05:21:00,46.0,46.0,-100.00,East,81,1.0,3.0,99,0.00,,,0.93,0.000000,,2013-05-14 12:21:00,
2013-05-14 05:31:00,46.0,46.0,-100.00,East,81,1.0,3.0,99,0.00,,,0.93,0.000000,,2013-05-14 12:31:00,
2013-05-14 05:52:00,46.0,45.0,-100.00,East,95,1.0,5.0,96,0.00,,,0.92,0.000000,,2013-05-14 12:52:00,
2013-05-14 06:01:00,46.0,45.0,-100.00,East,95,1.0,5.0,96,0.00,,,0.92,0.000000,,2013-05-14 13:01:00,
2013-05-14 06:11:00,46.0,45.0,-100.00,East,95,1.0,5.0,96,0.00,,,0.92,0.000000,,2013-05-14 13:11:00,
2013-05-14 06:22:00,46.0,45.0,-100.00,East,95,1.0,5.0,96,0.00,,,0.92,0.000000,,2013-05-14 13:22:00,
2013-05-14 06:32:00,46.0,45.0,-100.00,East,95,1.0,5.0,96,0.00,,,0.92,0.000000,,2013-05-14 13:32:00,
2013-05-14 07:52:00,48.0,46.0,-100.00,East,88,0.0,3.0,92,-99.99,,,0.93,78.000000,,2013-05-14 14:52:00,
2013-05-14 08:01:00,48.0,46.0,-100.00,East,88,0.0,3.0,92,-99.99,,,0.93,78.000000,,2013-05-14 15:01:00,
2013-05-14 08:12:00,48.0,46.0,-100.00,East,88,0.0,3.0,92,-99.99,,,0.93,78.000000,,2013-05-14 15:12:00,
2013-05-14 08:21:00,48.0,46.0,-100.00,East,88,0.0,3.0,92,-99.99,,,0.93,78.000000,,2013-05-14 15:21:00,
2013-05-14 08:32:00,48.0,46.0,-100.00,East,88,0.0,3.0,92,-99.99,,,0.93,78.000000,,2013-05-14 15:32:00,
2013-05-14 08:33:00,53.0,48.0,-100.00,SE,128,0.0,4.0,82,0.00,,,0.93,223.000000,,2013-05-14 15:33:00,
2013-05-14 08:53:00,53.0,48.0,-100.00,SE,128,0.0,4.0,82,0.00,,,0.93,223.000000,,2013-05-14 15:53:00,
2013-05-14 09:02:00,53.0,48.0,-100.00,SE,128,0.0,4.0,82,0.00,,,0.93,223.000000,,2013-05-14 16:02:00,
2013-05-14 09:12:00,53.0,48.0,-100.00,SE,128,0.0,4.0,82,0.00,,,0.93,223.000000,,2013-05-14 16:12:00,
2013-05-14 09:23:00,53.0,48.0,-100.00,SE,128,0.0,4.0,82,0.00,,,0.93,223.000000,,2013-05-14 16:23:00,
2013-05-14 09:54:00,55.0,45.0,-100.00,ESE,123,3.0,8.0,70,0.00,,,0.92,403.000000,,2013-05-14 16:54:00,
2013-05-14 10:03:00,55.0,45.0,-100.00,ESE,123,3.0,8.0,70,0.00,,,0.92,403.000000,,2013-05-14 17:03:00,
2013-05-14 10:13:00,55.0,45.0,-100.00,ESE,123,3.0,8.0,70,0.00,,,0.92,403.000000,,2013-05-14 17:13:00,
2013-05-14 10:24:00,55.0,45.0,-100.00,ESE,123,3.0,8.0,70,0.00,,,0.92,403.000000,,2013-05-14 17:24:00,
2013-05-14 10:32:00,55.0,45.0,-100.00,ESE,123,3.0,8.0,70,0.00,,,0.92,403.000000,,2013-05-14 17:32:00,
2013-05-14 10:52:00,54.0,44.0,-100.00,SSE,164,3.0,9.0,70,0.00,,,0.90,552.000000,,2013-05-14 17:52:00,
2013-05-14 11:02:00,54.0,44.0,-100.00,SSE,164,3.0,9.0,70,0.00,,,0.90,552.000000,,2013-05-14 18:02:00,
2013-05-14 11:12:00,54.0,44.0,-100.00,SSE,164,3.0,9.0,70,0.00,,,0.90,552.000000,,2013-05-14 18:12:00,
2013-05-14 11:22:00,54.0,44.0,-100.00,SSE,164,3.0,9.0,70,0.00,,,0.90,552.000000,,2013-05-14 18:22:00,
2013-05-14 11:31:00,54.0,44.0,-100.00,SSE,164,3.0,9.0,70,0.00,,,0.90,552.000000,,2013-05-14 18:31:00,
2013-05-14 11:52:00,56.0,45.0,-100.00,East,92,1.0,7.0,66,0.00,,,0.65,319.000000,,2013-05-14 18:52:00,
2013-05-14 12:01:00,56.0,45.0,-100.00,East,92,1.0,7.0,66,0.00,,,0.65,319.000000,,2013-05-14 19:01:00,
2013-05-14 12:11:00,56.0,45.0,-100.00,East,92,1.0,7.0,66,0.00,,,0.65,319.000000,,2013-05-14 19:11:00,
2013-05-14 12:21:00,56.0,45.0,-100.00,East,92,1.0,7.0,66,0.00,,,0.65,319.000000,,2013-05-14 19:21:00,
2013-05-14 12:31:00,56.0,45.0,-100.00,East,92,1.0,7.0,66,0.00,,,0.65,319.000000,,2013-05-14 19:31:00,
2013-05-14 12:52:00,60.0,46.0,-100.00,SW,228,2.0,10.0,59,0.00,,,0.54,658.000000,,2013-05-14 19:52:00,
2013-05-14 13:02:00,60.0,46.0,-100.00,SW,228,2.0,10.0,59,0.00,,,0.54,658.000000,,2013-05-14 20:02:00,
2013-05-14 13:11:00,60.0,46.0,-100.00,SW,228,2.0,10.0,59,0.00,,,0.54,658.000000,,2013-05-14 20:11:00,
2013-05-14 13:22:00,60.0,46.0,-100.00,SW,228,2.0,10.0,59,0.00,,,0.54,658.000000,,2013-05-14 20:22:00,
2013-05-14 13:32:00,60.0,46.0,-100.00,SW,228,2.0,10.0,59,0.00,,,0.54,658.000000,,2013-05-14 20:32:00,
2013-05-14 13:33:00,61.0,43.0,-100.00,SW,236,3.0,10.0,51,0.00,,,0.47,674.000000,,2013-05-14 20:33:00,
2013-05-14 13:52:00,61.0,43.0,-100.00,SW,236,3.0,10.0,51,0.00,,,0.47,674.000000,,2013-05-14 20:52:00,
2013-05-14 14:03:00,61.0,43.0,-100.00,SW,236,3.0,10.0,51,0.00,,,0.47,674.000000,,2013-05-14 21:03:00,
2013-05-14 14:12:00,61.0,43.0,-100.00,SW,236,3.0,10.0,51,0.00,,,0.47,674.000000,,2013-05-14 21:12:00,
2013-05-14 14:22:00,61.0,43.0,-100.00,SW,236,3.0,10.0,51,0.00,,,0.47,674.000000,,2013-05-14 21:22:00,
2013-05-14 14:33:00,62.0,43.0,-100.00,SW,224,3.0,10.0,49,0.00,,,0.25,924.000000,,2013-05-14 21:33:00,
2013-05-14 14:53:00,62.0,43.0,-100.00,SW,224,3.0,10.0,49,0.00,,,0.25,924.000000,,2013-05-14 21:53:00,
2013-05-14 15:03:00,62.0,43.0,-100.00,SW,224,3.0,10.0,49,0.00,,,0.25,924.000000,,2013-05-14 22:03:00,
2013-05-14 15:13:00,62.0,43.0,-100.00,SW,224,3.0,10.0,49,0.00,,,0.25,924.000000,,2013-05-14 22:13:00,
2013-05-14 15:24:00,62.0,43.0,-100.00,SW,224,3.0,10.0,49,0.00,,,0.25,924.000000,,2013-05-14 22:24:00,
2013-05-14 15:54:00,63.0,44.0,-100.00,WSW,257,3.0,9.0,50,0.00,,,0.13,767.000000,,2013-05-14 22:54:00,
2013-05-14 16:03:00,63.0,44.0,-100.00,WSW,257,3.0,9.0,50,0.00,,,0.13,767.000000,,2013-05-14 23:03:00,
2013-05-14 16:12:00,63.0,44.0,-100.00,WSW,257,3.0,9.0,50,0.00,,,0.13,767.000000,,2013-05-14 23:12:00,
2013-05-14 16:52:00,62.0,44.0,-100.00,WSW,254,4.0,12.0,52,0.00,,,0.13,703.000000,,2013-05-14 23:52:00,
2013-05-14 17:01:00,62.0,44.0,-100.00,WSW,254,4.0,12.0,52,0.00,,,0.13,703.000000,,2013-05-15 00:01:00,
2013-05-14 17:11:00,62.0,44.0,-100.00,WSW,254,4.0,12.0,52,0.00,,,0.13,703.000000,,2013-05-15 00:11:00,
2013-05-14 17:21:00,62.0,44.0,-100.00,WSW,254,4.0,12.0,52,0.00,,,0.13,703.000000,,2013-05-15 00:21:00,
2013-05-14 17:32:00,62.0,44.0,-100.00,WSW,254,4.0,12.0,52,0.00,,,0.13,703.000000,,2013-05-15 00:32:00,
2013-05-14 18:52:00,56.0,44.0,-100.00,SW,234,1.0,8.0,65,-99.99,,,0.08,195.000000,,2013-05-15 01:52:00,
2013-05-14 19:01:00,56.0,44.0,-100.00,SW,234,1.0,8.0,65,-99.99,,,0.08,195.000000,,2013-05-15 02:01:00,
2013-05-14 19:11:00,56.0,44.0,-100.00,SW,234,1.0,8.0,65,-99.99,,,0.08,195.000000,,2013-05-15 02:11:00,
2013-05-14 19:21:00,56.0,44.0,-100.00,SW,234,1.0,8.0,65,-99.99,,,0.08,195.000000,,2013-05-15 02:21:00,
2013-05-14 19:31:00,56.0,44.0,-100.00,SW,234,1.0,8.0,65,-99.99,,,0.08,195.000000,,2013-05-15 02:31:00,
2013-05-14 19:33:00,54.0,46.0,-100.00,WSW,240,0.0,6.0,73,0.00,,,0.08,118.000000,,2013-05-15 02:33:00,
2013-05-14 19:52:00,54.0,46.0,-100.00,WSW,240,0.0,6.0,73,0.00,,,0.08,118.000000,,2013-05-15 02:52:00,
2013-05-14 20:01:00,54.0,46.0,-100.00,WSW,240,0.0,6.0,73,0.00,,,0.08,118.000000,,2013-05-15 03:01:00,
2013-05-14 20:12:00,54.0,46.0,-100.00,WSW,240,0.0,6.0,73,0.00,,,0.08,118.000000,,2013-05-15 03:12:00,
2013-05-14 20:21:00,54.0,46.0,-100.00,WSW,240,0.0,6.0,73,0.00,,,0.08,118.000000,,2013-05-15 03:21:00,
2013-05-14 20:54:00,51.0,46.0,-100.00,West,275,0.0,6.0,82,0.00,,,0.08,37.000000,,2013-05-15 03:54:00,
2013-05-14 21:03:00,51.0,46.0,-100.00,West,275,0.0,6.0,82,0.00,,,0.08,37.000000,,2013-05-15 04:03:00,
2013-05-14 21:12:00,51.0,46.0,-100.00,West,275,0.0,6.0,82,0.00,,,0.08,37.000000,,2013-05-15 04:12:00,
2013-05-14 21:23:00,51.0,46.0,-100.00,West,275,0.0,6.0,82,0.00,,,0.08,37.000000,,2013-05-15 04:23:00,
2013-05-14 21:32:00,51.0,46.0,-100.00,West,275,0.0,6.0,82,0.00,,,0.08,37.000000,,2013-05-15 04:32:00,
2013-05-14 21:52:00,50.0,46.0,-100.00,East,99,1.0,3.0,85,0.00,,,0.08,2.000000,,2013-05-15 04:52:00,
2013-05-14 22:02:00,50.0,46.0,-100.00,East,99,1.0,3.0,85,0.00,,,0.08,2.000000,,2013-05-15 05:02:00,
2013-05-14 22:12:00,50.0,46.0,-100.00,East,99,1.0,3.0,85,0.00,,,0.08,2.000000,,2013-05-15 05:12:00,
2013-05-14 22:22:00,50.0,46.0,-100.00,East,99,1.0,3.0,85,0.00,,,0.08,2.000000,,2013-05-15 05:22:00,
2013-05-14 22:32:00,50.0,46.0,-100.00,East,99,1.0,3.0,85,0.00,,,0.08,2.000000,,2013-05-15 05:32:00,
2013-05-14 22:52:00,49.0,46.0,-100.00,ESE,105,0.0,3.0,89,0.00,,,0.06,0.000000,,2013-05-15 05:52:00,
2013-05-14 23:02:00,49.0,46.0,-100.00,ESE,105,0.0,3.0,89,0.00,,,0.06,0.000000,,2013-05-15 06:02:00,
2013-05-14 23:11:00,49.0,46.0,-100.00,ESE,105,0.0,3.0,89,0.00,,,0.06,0.000000,,2013-05-15 06:11:00,
2013-05-14 23:21:00,49.0,46.0,-100.00,ESE,105,0.0,3.0,89,0.00,,,0.06,0.000000,,2013-05-15 06:21:00,
2013-05-14 23:31:00,49.0,46.0,-100.00,ESE,105,0.0,3.0,89,0.00,,,0.06,0.000000,,2013-05-15 06:31:00,
2013-05-14 23:52:00,49.0,46.0,-100.00,East,86,2.0,5.0,88,0.00,,,0.01,0.000000,,2013-05-15 06:52:00,